Milwaukee Timmerman, WI

3:34 PM CDT on May 28, 2017 (GMT -0500)
Timmerman

Weather History for KMWC - October, 2012

Change the Weather History Date:

Friday, October 12, 2012

  Actual Average Record
Temperature  
Mean Temperature 39 °F -  
Max Temperature 48 °F 62 °F 82 °F (2008)
Min Temperature 30 °F 43 °F 27 °F (1967)
Degree Days  
Heating Degree Days 26    
Moisture  
Dew Point 27 °F    
Average Humidity 63    
Maximum Humidity 75    
Minimum Humidity 45    
Precipitation  
Precipitation 0.00 in - - ()
Sea Level Pressure  
Sea Level Pressure 30.37 in    
Wind  
Wind Speed 7 mph (NE)    
Max Wind Speed 12 mph    
Max Gust Speed 18 mph    
Visibility 10 miles    
Events      
Averages and records for this station are not official NWS values.
T = Trace of Precipitation, MM = Missing Value Source: NWS Daily Summary

Daily Weather History Graph

Daily Weather History Graph

Search for Another Location

Airport or City:

Trip Planner

Search our weather history database for the weather conditions in past years. The results will help you decide how hot, cold, wet, or windy it might be!

Date:

Astronomy

Oct. 12, 2012 Rise Set
Actual Time 7:02 AM CDT 6:13 PM CDT
Civil Twilight 6:34 AM CDT 6:41 PM CDT
Nautical Twilight 6:01 AM CDT 7:14 PM CDT
Astronomical Twilight 5:28 AM CDT 7:47 PM CDT
Moon 3:41 AM CDT (10/12) 4:26 PM CDT (10/12)
Length of Visible Light 12h 07m
Length of Day
11h 10m
Waning Crescent, 10% of the Moon is Illuminated
Oct 12
Waning Crescent
Oct 15
New
Oct 21
First Quarter
Oct 29
Full
Nov 6
Last Quarter

Hourly Weather History & Observations

Time (CDT) Temp. Windchill Dew Point Humidity Pressure Visibility Wind Dir Wind Speed Gust Speed Precip Events Conditions
12:15 AM 41.0 °F 34.3 °F 21.2 °F 45% 30.30 in 10.0 mi North 11.5 mph 18.4 mph N/A   Clear
12:35 AM 39.2 °F 33.0 °F 21.2 °F 49% 30.31 in 10.0 mi North 9.2 mph - N/A   Clear
1:15 AM 37.4 °F 33.8 °F 21.2 °F 52% 30.33 in 10.0 mi North 4.6 mph - N/A   Clear
1:35 AM 35.6 °F 30.7 °F 21.2 °F 56% 30.34 in 10.0 mi North 5.8 mph - N/A   Clear
1:55 AM 35.6 °F 30.7 °F 21.2 °F 56% 30.35 in 10.0 mi North 5.8 mph - N/A   Clear
2:15 AM 35.6 °F 29.9 °F 21.2 °F 56% 30.35 in 10.0 mi North 6.9 mph - N/A   Clear
2:35 AM 33.8 °F 27.0 °F 23.0 °F 65% 30.36 in 10.0 mi North 8.1 mph - N/A   Clear
2:55 AM 33.8 °F 27.7 °F 23.0 °F 65% 30.36 in 10.0 mi North 6.9 mph - N/A   Clear
3:15 AM 33.8 °F 28.6 °F 23.0 °F 65% 30.36 in 10.0 mi NNW 5.8 mph - N/A   Clear
3:35 AM 32.0 °F 26.4 °F 23.0 °F 69% 30.36 in 10.0 mi NNW 5.8 mph - N/A   Clear
3:55 AM 33.8 °F 30.8 °F 23.0 °F 65% 30.37 in 10.0 mi NW 3.5 mph - N/A   Clear
4:15 AM 32.0 °F 28.7 °F 23.0 °F 69% 30.38 in 10.0 mi NW 3.5 mph - N/A   Clear
4:35 AM 32.0 °F 28.7 °F 23.0 °F 69% 30.39 in 10.0 mi NW 3.5 mph - N/A   Clear
4:55 AM 32.0 °F 28.7 °F 23.0 °F 69% 30.40 in 10.0 mi NNW 3.5 mph - N/A   Clear
5:15 AM 32.0 °F 28.7 °F 23.0 °F 69% 30.40 in 10.0 mi North 3.5 mph - N/A   Clear
5:55 AM 32.0 °F - 23.0 °F 69% 30.41 in 10.0 mi Calm Calm - N/A   Clear
6:15 AM 32.0 °F 28.7 °F 23.0 °F 69% 30.42 in 10.0 mi NNW 3.5 mph - N/A   Clear
6:35 AM 32.0 °F 28.7 °F 24.8 °F 75% 30.42 in 10.0 mi NNW 3.5 mph - N/A   Clear
6:45 AM 30.2 °F 24.3 °F 23.0 °F 75% 30.42 in 10.0 mi North 5.8 mph - N/A   Clear
6:55 AM 32.0 °F 26.4 °F 24.8 °F 75% 30.42 in 10.0 mi North 5.8 mph - N/A   Clear
7:45 AM 32.0 °F 25.6 °F 24.8 °F 75% 30.44 in 10.0 mi North 6.9 mph - N/A   Clear
8:45 AM 37.4 °F 32.8 °F 26.6 °F 65% 30.46 in 10.0 mi North 5.8 mph - N/A   Clear
9:45 AM 42.8 °F 39.3 °F 26.6 °F 53% 30.46 in 10.0 mi NE 5.8 mph - N/A   Clear
11:45 AM 46.4 °F 43.5 °F 26.6 °F 46% 30.47 in 10.0 mi ENE 5.8 mph - N/A   Scattered Clouds
12:45 PM 48.2 °F - 30.2 °F 50% 30.45 in 10.0 mi East 9.2 mph - N/A   Scattered Clouds
1:45 PM 46.4 °F 42.4 °F 30.2 °F 53% 30.43 in 10.0 mi ESE 8.1 mph - N/A   Scattered Clouds
2:45 PM 48.2 °F - 33.8 °F 58% 30.41 in 10.0 mi ESE 5.8 mph - N/A   Scattered Clouds
3:45 PM 48.2 °F - 32.0 °F 54% 30.39 in 10.0 mi SE 9.2 mph - N/A   Scattered Clouds
4:45 PM 48.2 °F - 33.8 °F 58% 30.37 in 10.0 mi SE 9.2 mph - N/A   Scattered Clouds
5:45 PM 46.4 °F 42.9 °F 32.0 °F 57% 30.36 in 10.0 mi SSE 6.9 mph - N/A   Clear
6:45 PM 44.6 °F 41.4 °F 32.0 °F 61% 30.35 in 10.0 mi ESE 5.8 mph - N/A   Clear
7:45 PM 42.8 °F 38.6 °F 32.0 °F 66% 30.33 in 10.0 mi SSE 6.9 mph - N/A   Clear
9:15 PM 41.0 °F 38.0 °F 32.0 °F 70% 30.32 in 10.0 mi SE 4.6 mph - N/A   Clear
9:35 PM 41.0 °F 35.8 °F 32.0 °F 70% 30.31 in 10.0 mi SE 8.1 mph - N/A   Clear
9:55 PM 41.0 °F 35.8 °F 32.0 °F 70% 30.30 in 10.0 mi SE 8.1 mph - N/A   Clear
10:15 PM 41.0 °F 38.0 °F 32.0 °F 70% 30.30 in 10.0 mi SSE 4.6 mph - N/A   Clear
10:55 PM 41.0 °F 38.0 °F 32.0 °F 70% 30.28 in 10.0 mi SE 4.6 mph - N/A   Clear
11:15 PM 41.0 °F 38.0 °F 32.0 °F 70% 30.28 in 10.0 mi South 4.6 mph - N/A   Clear
11:35 PM 41.0 °F 39.0 °F 32.0 °F 70% 30.27 in 10.0 mi SE 3.5 mph - N/A   Clear
11:55 PM 42.8 °F 40.1 °F 32.0 °F 66% 30.26 in 10.0 mi SSE 4.6 mph - N/A   Clear